Time,TemperatureF,DewpointF,PressureIn,WindDirection,WindDirectionDegrees,WindSpeedMPH,WindSpeedGustMPH,Humidity,HourlyPrecipIn,Conditions,Clouds,dailyrainin,SoftwareType,DateUTC
2013-05-27 00:05:00,45.2,41.2,29.96,ENE,68,1.1,1.1,86,0.00,,,0.00,WUHU216HW,2013-05-27 06:05:00,
2013-05-27 00:13:00,45.0,41.4,29.96,ENE,68,0.0,1.1,87,0.00,,,0.00,WUHU216HW,2013-05-27 06:13:00,
2013-05-27 00:21:00,45.2,41.6,29.96,ENE,68,3.1,3.1,87,0.00,,,0.00,WUHU216HW,2013-05-27 06:21:00,
2013-05-27 00:30:00,45.2,42.2,29.96,NNE,23,1.1,3.1,89,0.00,,,0.00,WUHU216HW,2013-05-27 06:30:00,
2013-05-27 00:38:00,45.4,42.4,29.96,NNW,338,0.0,1.1,89,0.00,,,0.00,WUHU216HW,2013-05-27 06:38:00,
2013-05-27 00:46:00,45.4,42.0,29.96,ENE,68,1.8,2.0,88,0.00,,,0.00,WUHU216HW,2013-05-27 06:46:00,
2013-05-27 00:56:00,45.2,41.9,29.95,ENE,68,2.9,2.9,88,0.00,,,0.00,WUHU216HW,2013-05-27 06:56:00,
2013-05-27 01:03:00,45.2,41.9,29.94,NNE,23,1.3,3.1,88,0.00,,,0.00,WUHU216HW,2013-05-27 07:03:00,
2013-05-27 01:12:00,45.0,41.7,29.93,ENE,68,2.5,2.5,88,0.00,,,0.00,WUHU216HW,2013-05-27 07:12:00,
2013-05-27 01:21:00,44.8,41.5,29.93,NE,45,0.0,2.5,88,0.00,,,0.00,WUHU216HW,2013-05-27 07:21:00,
2013-05-27 01:29:00,44.3,41.0,29.93,NE,45,0.4,1.1,88,0.00,,,0.00,WUHU216HW,2013-05-27 07:29:00,
2013-05-27 01:37:00,43.9,40.6,29.93,NE,45,1.8,2.5,88,0.00,,,0.00,WUHU216HW,2013-05-27 07:37:00,
2013-05-27 01:46:00,43.6,40.2,29.93,East,90,0.9,1.6,88,0.00,,,0.00,WUHU216HW,2013-05-27 07:46:00,
2013-05-27 01:54:00,43.0,39.4,29.93,East,90,0.9,0.9,87,0.00,,,0.00,WUHU216HW,2013-05-27 07:54:00,
2013-05-27 02:01:00,42.5,38.9,29.93,ESE,113,1.3,2.2,87,0.00,,,0.00,WUHU216HW,2013-05-27 08:01:00,
2013-05-27 02:12:00,42.3,38.7,29.93,East,90,0.0,1.6,87,0.00,,,0.00,WUHU216HW,2013-05-27 08:12:00,
2013-05-27 02:19:00,42.1,38.5,29.93,NE,45,2.0,2.5,87,0.00,,,0.00,WUHU216HW,2013-05-27 08:19:00,
2013-05-27 02:27:00,42.1,38.8,29.93,ENE,68,2.5,3.4,88,0.00,,,0.00,WUHU216HW,2013-05-27 08:27:00,
2013-05-27 02:37:00,41.9,39.0,29.93,ENE,68,2.5,3.4,89,0.00,,,0.00,WUHU216HW,2013-05-27 08:37:00,
2013-05-27 02:44:00,41.9,39.0,29.93,ENE,68,2.5,3.4,89,0.00,,,0.00,WUHU216HW,2013-05-27 08:44:00,
2013-05-27 02:52:00,41.8,38.8,29.94,ESE,113,2.0,2.5,89,0.00,,,0.00,WUHU216HW,2013-05-27 08:52:00,
2013-05-27 03:02:00,41.6,38.9,29.94,West,270,1.1,2.5,90,0.00,,,0.00,WUHU216HW,2013-05-27 09:02:00,
2013-05-27 03:10:00,41.2,38.5,29.95,NW,315,0.4,2.0,90,0.00,,,0.00,WUHU216HW,2013-05-27 09:10:00,
2013-05-27 03:17:00,41.0,38.3,29.95,NNE,23,1.1,1.8,90,0.00,,,0.00,WUHU216HW,2013-05-27 09:17:00,
2013-05-27 03:27:00,41.2,38.5,29.94,NNE,23,1.1,2.0,90,0.00,,,0.00,WUHU216HW,2013-05-27 09:27:00,
2013-05-27 03:35:00,41.4,38.7,29.94,ENE,68,0.2,2.9,90,0.00,,,0.00,WUHU216HW,2013-05-27 09:35:00,
2013-05-27 03:42:00,41.4,38.7,29.93,ENE,68,1.1,2.7,90,0.00,,,0.00,WUHU216HW,2013-05-27 09:42:00,
2013-05-27 03:52:00,41.4,38.7,29.93,ENE,68,1.1,1.8,90,0.00,,,0.00,WUHU216HW,2013-05-27 09:52:00,
2013-05-27 03:59:00,41.4,38.7,29.93,ENE,68,1.1,2.0,90,0.00,,,0.00,WUHU216HW,2013-05-27 09:59:00,
2013-05-27 04:08:00,41.2,38.5,29.93,ENE,68,0.9,1.1,90,0.00,,,0.00,WUHU216HW,2013-05-27 10:08:00,
2013-05-27 04:18:00,41.0,38.3,29.94,ENE,68,1.1,1.3,90,0.00,,,0.00,WUHU216HW,2013-05-27 10:18:00,
2013-05-27 04:25:00,41.0,38.3,29.94,ESE,113,0.4,1.8,90,0.00,,,0.00,WUHU216HW,2013-05-27 10:25:00,
2013-05-27 04:33:00,41.4,39.0,29.94,ESE,113,0.4,0.9,91,0.00,,,0.00,WUHU216HW,2013-05-27 10:33:00,
2013-05-27 04:42:00,41.6,39.2,29.94,ESE,113,0.0,0.4,91,0.00,,,0.00,WUHU216HW,2013-05-27 10:42:00,
2013-05-27 04:50:00,41.8,39.3,29.93,ESE,113,0.0,0.0,91,0.00,,,0.00,WUHU216HW,2013-05-27 10:50:00,
2013-05-27 04:58:00,41.8,39.3,29.93,ESE,113,0.0,0.0,91,0.00,,,0.00,WUHU216HW,2013-05-27 10:58:00,
2013-05-27 05:08:00,41.9,39.5,29.93,ESE,113,0.0,0.0,91,0.00,,,0.00,WUHU216HW,2013-05-27 11:08:00,
2013-05-27 05:16:00,42.1,39.7,29.94,ESE,113,0.0,0.0,91,0.00,,,0.00,WUHU216HW,2013-05-27 11:16:00,
2013-05-27 05:23:00,42.1,39.7,29.93,ESE,113,0.0,0.0,91,0.00,,,0.00,WUHU216HW,2013-05-27 11:23:00,
2013-05-27 05:33:00,42.3,39.9,29.94,SE,135,1.1,2.0,91,0.00,,,0.00,WUHU216HW,2013-05-27 11:33:00,
2013-05-27 05:40:00,42.3,39.9,29.93,SE,135,0.9,2.0,91,0.00,,,0.00,WUHU216HW,2013-05-27 11:40:00,
2013-05-27 05:48:00,42.1,39.7,29.93,ESE,113,0.7,1.6,91,0.00,,,0.00,WUHU216HW,2013-05-27 11:48:00,
2013-05-27 05:58:00,42.3,39.9,29.93,ESE,113,0.0,1.1,91,0.00,,,0.00,WUHU216HW,2013-05-27 11:58:00,
2013-05-27 06:06:00,42.3,39.9,29.93,WSW,248,1.3,1.3,91,0.00,,,0.00,WUHU216HW,2013-05-27 12:06:00,
2013-05-27 06:14:00,42.5,40.3,29.93,WNW,293,1.1,2.2,92,0.00,,,0.00,WUHU216HW,2013-05-27 12:14:00,
2013-05-27 06:23:00,42.7,40.8,29.92,NNW,338,0.7,1.1,93,0.00,,,0.00,WUHU216HW,2013-05-27 12:23:00,
2013-05-27 06:31:00,42.8,41.0,29.92,NNW,338,0.0,1.1,93,0.00,,,0.00,WUHU216HW,2013-05-27 12:31:00,
2013-05-27 06:39:00,42.8,41.0,29.92,NNW,338,0.0,1.1,93,0.00,,,0.00,WUHU216HW,2013-05-27 12:39:00,
2013-05-27 06:48:00,42.8,41.0,29.92,NNW,338,0.4,1.1,93,0.00,,,0.00,WUHU216HW,2013-05-27 12:48:00,
2013-05-27 06:56:00,42.8,41.0,29.92,North,0,0.7,1.3,93,0.00,,,0.00,WUHU216HW,2013-05-27 12:56:00,
2013-05-27 07:04:00,43.0,41.1,29.92,North,0,0.0,0.9,93,0.00,,,0.00,WUHU216HW,2013-05-27 13:04:00,
2013-05-27 07:14:00,43.2,41.3,29.92,North,0,0.0,0.0,93,0.00,,,0.00,WUHU216HW,2013-05-27 13:14:00,
2013-05-27 07:21:00,43.4,41.5,29.93,North,0,0.0,0.0,93,0.00,,,0.00,WUHU216HW,2013-05-27 13:21:00,
2013-05-27 07:29:00,43.7,41.9,29.92,WSW,248,0.0,1.1,93,0.00,,,0.00,WUHU216HW,2013-05-27 13:29:00,
2013-05-27 07:39:00,44.5,42.6,29.93,WSW,248,0.0,0.9,93,0.00,,,0.00,WUHU216HW,2013-05-27 13:39:00,
2013-05-27 07:46:00,45.4,43.5,29.93,ESE,113,2.0,2.0,93,0.00,,,0.00,WUHU216HW,2013-05-27 13:46:00,
2013-05-27 07:54:00,46.3,44.6,29.93,SE,135,2.5,3.1,94,0.00,,,0.00,WUHU216HW,2013-05-27 13:54:00,
2013-05-27 08:04:00,46.4,44.6,29.94,South,180,2.5,4.0,93,0.00,,,0.00,WUHU216HW,2013-05-27 14:04:00,
2013-05-27 08:12:00,46.4,44.3,29.94,SSE,158,2.9,3.8,92,0.00,,,0.00,WUHU216HW,2013-05-27 14:12:00,
2013-05-27 08:20:00,46.6,44.5,29.94,SSW,203,3.8,6.3,92,0.00,,,0.00,WUHU216HW,2013-05-27 14:20:00,
2013-05-27 08:29:00,46.4,44.3,29.94,SSW,203,4.5,7.2,92,0.00,,,0.00,WUHU216HW,2013-05-27 14:29:00,
2013-05-27 08:37:00,46.4,44.3,29.94,SSW,203,3.4,6.3,92,0.00,,,0.00,WUHU216HW,2013-05-27 14:37:00,
2013-05-27 08:45:00,46.3,44.1,29.94,South,180,2.5,4.0,92,0.00,,,0.00,WUHU216HW,2013-05-27 14:45:00,
2013-05-27 08:54:00,46.3,44.1,29.94,SSW,203,2.9,3.8,92,0.00,,,0.00,WUHU216HW,2013-05-27 14:54:00,
2013-05-27 09:03:00,46.4,44.3,29.95,South,180,4.0,4.5,92,0.00,,,0.00,WUHU216HW,2013-05-27 15:03:00,
2013-05-27 09:10:00,46.4,44.3,29.95,SSE,158,4.3,4.7,92,0.00,,,0.00,WUHU216HW,2013-05-27 15:10:00,
2013-05-27 09:20:00,46.8,44.6,29.94,SSE,158,10.3,10.3,92,0.00,,,0.00,WUHU216HW,2013-05-27 15:20:00,
2013-05-27 09:27:00,47.2,44.7,29.94,SSE,158,7.4,11.4,91,0.00,,,0.00,WUHU216HW,2013-05-27 15:27:00,
2013-05-27 09:35:00,47.3,44.9,29.95,SE,135,8.5,10.1,91,0.00,,,0.00,WUHU216HW,2013-05-27 15:35:00,
2013-05-27 09:45:00,47.5,45.1,29.94,SSE,158,7.2,8.5,91,0.00,,,0.00,WUHU216HW,2013-05-27 15:45:00,
2013-05-27 09:52:00,47.5,44.8,29.95,SSE,158,7.2,9.8,90,0.00,,,0.00,WUHU216HW,2013-05-27 15:52:00,
2013-05-27 10:00:00,47.7,45.0,29.94,SSE,158,5.6,7.2,90,0.00,,,0.00,WUHU216HW,2013-05-27 16:00:00,
2013-05-27 10:10:00,48.4,45.4,29.94,SE,135,5.4,6.9,89,0.00,,,0.00,WUHU216HW,2013-05-27 16:10:00,
2013-05-27 10:18:00,49.3,45.9,29.94,SE,135,6.9,7.4,88,0.00,,,0.00,WUHU216HW,2013-05-27 16:18:00,
2013-05-27 10:25:00,50.0,46.5,29.94,SSE,158,5.4,7.6,88,0.00,,,0.00,WUHU216HW,2013-05-27 16:25:00,
2013-05-27 10:35:00,51.5,48.0,29.94,South,180,5.1,7.2,88,0.00,,,0.00,WUHU216HW,2013-05-27 16:35:00,
2013-05-27 10:43:00,53.1,48.7,29.94,SSE,158,6.0,7.8,85,0.00,,,0.00,WUHU216HW,2013-05-27 16:43:00,
2013-05-27 10:50:00,53.3,48.2,29.94,SE,135,6.3,7.8,83,0.00,,,0.00,WUHU216HW,2013-05-27 16:50:00,
2013-05-27 11:00:00,53.5,48.2,29.93,SSE,158,6.9,9.4,82,0.00,,,0.00,WUHU216HW,2013-05-27 17:00:00,
2013-05-27 11:04:00,53.5,48.2,29.93,SSW,203,8.1,9.4,82,0.00,,,0.00,WUHU216HW,2013-05-27 17:04:00,
2013-05-27 11:05:00,53.6,48.3,29.93,South,180,7.2,9.4,82,0.00,,,0.00,WUHU216HW,2013-05-27 17:05:00,
2013-05-27 11:10:00,53.6,48.0,29.93,South,180,6.3,8.1,81,0.00,,,0.00,WUHU216HW,2013-05-27 17:10:00,
2013-05-27 11:15:00,54.0,47.4,29.93,South,180,7.8,7.8,78,0.00,,,0.00,WUHU216HW,2013-05-27 17:15:00,
2013-05-27 11:20:00,54.7,47.6,29.93,South,180,6.5,7.8,77,0.00,,,0.00,WUHU216HW,2013-05-27 17:20:00,
2013-05-27 11:25:00,55.1,47.6,29.93,SSE,158,6.5,7.4,76,0.00,,,0.00,WUHU216HW,2013-05-27 17:25:00,
2013-05-27 11:30:00,55.1,47.3,29.94,SSW,203,7.6,7.6,75,0.00,,,0.00,WUHU216HW,2013-05-27 17:30:00,
2013-05-27 11:35:00,54.5,46.8,29.94,South,180,7.6,9.2,75,0.00,,,0.00,WUHU216HW,2013-05-27 17:35:00,
2013-05-27 11:40:00,54.7,47.3,29.94,SSW,203,8.5,9.2,76,0.00,,,0.00,WUHU216HW,2013-05-27 17:40:00,
2013-05-27 11:45:00,54.7,46.3,29.93,SSE,158,6.3,8.5,73,0.00,,,0.00,WUHU216HW,2013-05-27 17:45:00,
2013-05-27 11:50:00,54.7,47.3,29.93,SSE,158,6.5,10.1,76,0.00,,,0.00,WUHU216HW,2013-05-27 17:50:00,
2013-05-27 11:55:00,54.9,47.4,29.93,SSW,203,4.5,10.1,76,0.00,,,0.00,WUHU216HW,2013-05-27 17:55:00,
2013-05-27 12:00:00,55.4,48.3,29.93,SSE,158,5.1,9.6,77,0.00,,,0.00,WUHU216HW,2013-05-27 18:00:00,
2013-05-27 12:05:00,56.0,48.2,29.93,WSW,248,3.4,7.4,75,0.00,,,0.00,WUHU216HW,2013-05-27 18:05:00,
2013-05-27 12:10:00,56.5,47.3,29.93,SW,225,5.6,5.6,71,0.00,,,0.00,WUHU216HW,2013-05-27 18:10:00,
2013-05-27 12:15:00,57.2,48.6,29.93,South,180,4.7,5.6,73,0.00,,,0.00,WUHU216HW,2013-05-27 18:15:00,
2013-05-27 12:20:00,57.6,47.5,29.93,SW,225,6.0,7.2,69,0.00,,,0.00,WUHU216HW,2013-05-27 18:20:00,
2013-05-27 12:25:00,58.3,48.6,29.93,SSW,203,3.8,7.2,70,0.00,,,0.00,WUHU216HW,2013-05-27 18:25:00,
2013-05-27 12:30:00,59.4,49.2,29.93,SSW,203,6.5,6.5,69,0.00,,,0.00,WUHU216HW,2013-05-27 18:30:00,
2013-05-27 12:35:00,59.9,49.8,29.92,SE,135,4.7,6.5,69,0.00,,,0.00,WUHU216HW,2013-05-27 18:35:00,
2013-05-27 12:40:00,60.1,49.6,29.92,SSW,203,3.8,6.3,68,0.00,,,0.00,WUHU216HW,2013-05-27 18:40:00,
2013-05-27 12:45:00,60.1,47.9,29.92,SW,225,7.2,7.2,64,0.00,,,0.00,WUHU216HW,2013-05-27 18:45:00,
2013-05-27 12:50:00,59.9,47.4,29.92,WSW,248,1.3,7.2,63,0.00,,,0.00,WUHU216HW,2013-05-27 18:50:00,
2013-05-27 12:55:00,60.1,48.3,29.92,South,180,6.3,8.7,65,0.00,,,0.00,WUHU216HW,2013-05-27 18:55:00,
2013-05-27 13:00:00,60.8,49.9,29.91,SSE,158,5.4,8.7,67,0.00,,,0.00,WUHU216HW,2013-05-27 19:00:00,
2013-05-27 13:05:00,61.0,48.8,29.91,SSE,158,4.3,5.4,64,0.00,,,0.00,WUHU216HW,2013-05-27 19:05:00,
2013-05-27 13:10:00,60.5,49.2,29.91,SSE,158,5.4,7.2,66,0.00,,,0.00,WUHU216HW,2013-05-27 19:10:00,
2013-05-27 13:15:00,60.1,48.8,29.91,SE,135,0.4,7.2,66,0.00,,,0.00,WUHU216HW,2013-05-27 19:15:00,
2013-05-27 13:20:00,60.1,48.8,29.91,SW,225,1.1,6.3,66,0.00,,,0.00,WUHU216HW,2013-05-27 19:20:00,
2013-05-27 13:25:00,60.8,49.5,29.90,ENE,68,4.3,4.3,66,0.00,,,0.00,WUHU216HW,2013-05-27 19:25:00,
2013-05-27 13:30:00,61.2,49.4,29.90,South,180,4.0,4.3,65,0.00,,,0.00,WUHU216HW,2013-05-27 19:30:00,
2013-05-27 13:35:00,61.2,49.0,29.90,South,180,6.0,6.0,64,0.00,,,0.00,WUHU216HW,2013-05-27 19:35:00,
2013-05-27 13:40:00,61.6,49.3,29.90,SW,225,3.4,7.8,64,0.00,,,0.00,WUHU216HW,2013-05-27 19:40:00,
2013-05-27 13:45:00,61.2,48.2,29.91,SW,225,7.6,7.8,62,0.00,,,0.00,WUHU216HW,2013-05-27 19:45:00,
2013-05-27 13:50:00,60.3,48.5,29.91,SW,225,11.9,13.4,65,0.00,,,0.00,WUHU216HW,2013-05-27 19:50:00,
2013-05-27 13:55:00,59.2,49.1,29.91,SW,225,9.6,13.4,69,0.00,,,0.00,WUHU216HW,2013-05-27 19:55:00,
2013-05-27 14:00:00,59.2,47.9,29.91,SSW,203,10.5,12.8,66,0.00,,,0.00,WUHU216HW,2013-05-27 20:00:00,
2013-05-27 14:05:00,59.0,47.3,29.90,SSW,203,10.1,12.1,65,0.00,,,0.00,WUHU216HW,2013-05-27 20:05:00,
2013-05-27 14:10:00,59.0,47.7,29.91,South,180,9.8,11.4,66,0.00,,,0.00,WUHU216HW,2013-05-27 20:10:00,
2013-05-27 14:15:00,59.4,48.4,29.90,SE,135,7.4,11.4,67,0.00,,,0.00,WUHU216HW,2013-05-27 20:15:00,
2013-05-27 14:20:00,59.8,48.8,29.90,SSE,158,8.5,9.8,67,0.00,,,0.00,WUHU216HW,2013-05-27 20:20:00,
2013-05-27 14:25:00,60.3,49.0,29.90,SE,135,6.9,8.9,66,0.00,,,0.00,WUHU216HW,2013-05-27 20:25:00,
2013-05-27 14:30:00,60.8,49.5,29.90,SE,135,5.1,8.9,66,0.00,,,0.00,WUHU216HW,2013-05-27 20:30:00,
2013-05-27 14:35:00,61.4,49.2,29.90,South,180,10.3,10.3,64,0.00,,,0.00,WUHU216HW,2013-05-27 20:35:00,
2013-05-27 14:40:00,61.2,48.2,29.90,SSE,158,6.9,10.3,62,0.00,,,0.00,WUHU216HW,2013-05-27 20:40:00,
2013-05-27 14:45:00,61.4,48.3,29.89,SSE,158,5.8,9.8,62,0.00,,,0.00,WUHU216HW,2013-05-27 20:45:00,
2013-05-27 14:50:00,61.7,48.6,29.89,SE,135,7.6,9.2,62,0.00,,,0.00,WUHU216HW,2013-05-27 20:50:00,
2013-05-27 14:55:00,61.9,49.2,29.89,East,90,5.8,9.2,63,0.00,,,0.00,WUHU216HW,2013-05-27 20:55:00,
2013-05-27 15:00:00,62.3,49.2,29.89,SSE,158,7.6,8.7,62,0.00,,,0.00,WUHU216HW,2013-05-27 21:00:00,
2013-05-27 15:05:00,62.6,49.9,29.89,SSE,158,11.4,11.4,63,0.00,,,0.00,WUHU216HW,2013-05-27 21:05:00,
2013-05-27 15:10:00,63.0,50.2,29.88,SSE,158,6.9,11.4,63,0.00,,,0.00,WUHU216HW,2013-05-27 21:10:00,
2013-05-27 15:15:00,63.4,50.1,29.88,SSE,158,10.1,10.1,62,0.00,,,0.00,WUHU216HW,2013-05-27 21:15:00,
2013-05-27 15:20:00,63.5,49.9,29.88,SSE,158,5.4,10.1,61,0.00,,,0.00,WUHU216HW,2013-05-27 21:20:00,
2013-05-27 15:25:00,63.9,50.1,29.88,SE,135,8.5,9.8,61,0.00,,,0.00,WUHU216HW,2013-05-27 21:25:00,
2013-05-27 15:30:00,64.3,47.6,29.88,SSE,158,8.9,9.4,55,0.00,,,0.00,WUHU216HW,2013-05-27 21:30:00,
2013-05-27 15:35:00,64.4,46.4,29.88,SSW,203,8.5,8.9,52,0.00,,,0.00,WUHU216HW,2013-05-27 21:35:00,
2013-05-27 15:40:00,64.6,47.5,29.88,South,180,5.6,9.8,54,0.00,,,0.00,WUHU216HW,2013-05-27 21:40:00,
2013-05-27 15:45:00,65.2,46.5,29.87,SSE,158,3.1,9.8,51,0.00,,,0.00,WUHU216HW,2013-05-27 21:45:00,
2013-05-27 15:50:00,65.9,47.8,29.87,SE,135,4.9,6.9,52,0.00,,,0.00,WUHU216HW,2013-05-27 21:50:00,
2013-05-27 15:55:00,66.4,49.2,29.87,SE,135,7.6,8.7,54,0.00,,,0.00,WUHU216HW,2013-05-27 21:55:00,
2013-05-27 16:00:00,66.8,49.2,29.86,SE,135,7.2,8.7,53,0.00,,,0.00,WUHU216HW,2013-05-27 22:00:00,
2013-05-27 16:05:00,67.5,49.8,29.86,SSE,158,8.1,8.5,53,0.00,,,0.00,WUHU216HW,2013-05-27 22:05:00,
2013-05-27 16:10:00,67.7,46.7,29.86,South,180,5.4,9.6,47,0.00,,,0.00,WUHU216HW,2013-05-27 22:10:00,
2013-05-27 16:15:00,68.4,48.5,29.86,SSE,158,6.9,9.6,49,0.00,,,0.00,WUHU216HW,2013-05-27 22:15:00,
2013-05-27 16:20:00,68.8,48.2,29.85,SSW,203,6.3,6.9,48,0.00,,,0.00,WUHU216HW,2013-05-27 22:20:00,
2013-05-27 16:25:00,69.1,47.3,29.85,SSE,158,7.6,7.8,46,0.00,,,0.00,WUHU216HW,2013-05-27 22:25:00,
2013-05-27 16:30:00,69.5,48.3,29.85,South,180,5.4,10.5,47,0.00,,,0.00,WUHU216HW,2013-05-27 22:30:00,
2013-05-27 16:35:00,69.8,46.3,29.85,WSW,248,5.4,10.5,43,0.00,,,0.00,WUHU216HW,2013-05-27 22:35:00,
2013-05-27 16:40:00,71.3,47.5,29.85,South,180,6.9,9.2,43,0.00,,,0.00,WUHU216HW,2013-05-27 22:40:00,
2013-05-27 16:45:00,72.2,45.8,29.85,WSW,248,6.3,9.2,39,0.00,,,0.00,WUHU216HW,2013-05-27 22:45:00,
2013-05-27 16:50:00,72.5,46.2,29.85,SW,225,6.3,9.2,39,0.00,,,0.00,WUHU216HW,2013-05-27 22:50:00,
2013-05-27 16:55:00,73.4,46.2,29.84,SSW,203,6.3,7.4,38,0.00,,,0.00,WUHU216HW,2013-05-27 22:55:00,
2013-05-27 17:00:00,74.9,49.0,29.84,SSE,158,3.8,7.4,40,0.00,,,0.00,WUHU216HW,2013-05-27 23:00:00,
2013-05-27 17:05:00,77.0,47.2,29.84,SSE,158,3.6,7.6,35,0.00,,,0.00,WUHU216HW,2013-05-27 23:05:00,
2013-05-27 17:10:00,78.8,48.7,29.84,SSE,158,5.4,7.6,35,0.00,,,0.00,WUHU216HW,2013-05-27 23:10:00,
2013-05-27 17:15:00,79.7,51.0,29.84,South,180,2.7,6.0,37,0.00,,,0.00,WUHU216HW,2013-05-27 23:15:00,
2013-05-27 17:20:00,80.3,49.2,29.84,SSW,203,7.6,8.1,34,0.00,,,0.00,WUHU216HW,2013-05-27 23:20:00,
2013-05-27 17:25:00,79.7,48.0,29.84,WSW,248,4.0,8.1,33,0.00,,,0.00,WUHU216HW,2013-05-27 23:25:00,
2013-05-27 17:30:00,79.6,47.8,29.84,SE,135,11.0,11.0,33,0.00,,,0.00,WUHU216HW,2013-05-27 23:30:00,
2013-05-27 17:35:00,79.7,48.7,29.84,South,180,3.6,11.0,34,0.00,,,0.00,WUHU216HW,2013-05-27 23:35:00,
2013-05-27 17:40:00,80.5,47.8,29.83,SSE,158,7.6,7.6,32,0.00,,,0.00,WUHU216HW,2013-05-27 23:40:00,
2013-05-27 17:45:00,79.6,47.0,29.83,SSE,158,1.3,7.6,32,0.00,,,0.00,WUHU216HW,2013-05-27 23:45:00,
2013-05-27 17:50:00,79.2,47.4,29.83,South,180,5.1,6.0,33,0.00,,,0.00,WUHU216HW,2013-05-27 23:50:00,
2013-05-27 17:55:00,80.6,48.8,29.83,SE,135,4.7,6.0,33,0.00,,,0.00,WUHU216HW,2013-05-27 23:55:00,
2013-05-27 18:00:00,82.6,49.6,29.83,ESE,113,1.6,4.7,32,0.00,,,0.00,WUHU216HW,2013-05-28 00:00:00,
2013-05-27 18:05:00,83.9,50.0,29.82,SE,135,2.7,6.0,31,0.00,,,0.00,WUHU216HW,2013-05-28 00:05:00,
2013-05-27 18:10:00,84.6,49.9,29.82,SSE,158,2.0,6.0,30,0.00,,,0.00,WUHU216HW,2013-05-28 00:10:00,
2013-05-27 18:15:00,83.7,48.0,29.82,SSE,158,6.3,7.6,29,0.00,,,0.00,WUHU216HW,2013-05-28 00:15:00,
2013-05-27 18:20:00,83.2,47.5,29.82,WSW,248,2.9,7.6,29,0.00,,,0.00,WUHU216HW,2013-05-28 00:20:00,
2013-05-27 18:25:00,80.1,44.9,29.82,South,180,4.0,5.8,29,0.00,,,0.00,WUHU216HW,2013-05-28 00:25:00,
2013-05-27 18:30:00,79.6,47.0,29.82,South,180,1.3,5.8,32,0.00,,,0.00,WUHU216HW,2013-05-28 00:30:00,
2013-05-27 18:35:00,80.6,46.4,29.81,South,180,4.0,5.4,30,0.00,,,0.00,WUHU216HW,2013-05-28 00:35:00,
2013-05-27 18:40:00,80.8,45.5,29.81,SSE,158,5.4,7.8,29,0.00,,,0.00,WUHU216HW,2013-05-28 00:40:00,
2013-05-27 18:45:00,80.6,45.4,29.81,SW,225,2.7,7.8,29,0.00,,,0.00,WUHU216HW,2013-05-28 00:45:00,
2013-05-27 18:50:00,81.0,46.7,29.81,SSE,158,4.5,7.2,30,0.00,,,0.00,WUHU216HW,2013-05-28 00:50:00,
2013-05-27 18:55:00,81.7,47.4,29.81,ESE,113,2.5,6.3,30,0.00,,,0.00,WUHU216HW,2013-05-28 00:55:00,
2013-05-27 19:00:00,82.8,47.2,29.80,SE,135,1.1,4.0,29,0.00,,,0.00,WUHU216HW,2013-05-28 01:00:00,
2013-05-27 19:05:00,80.8,44.5,29.80,South,180,4.7,4.7,28,0.00,,,0.00,WUHU216HW,2013-05-28 01:05:00,
2013-05-27 19:10:00,80.6,46.4,29.80,SSE,158,5.6,5.6,30,0.00,,,0.00,WUHU216HW,2013-05-28 01:10:00,
2013-05-27 19:15:00,81.4,46.0,29.80,SE,135,1.3,5.6,29,0.00,,,0.00,WUHU216HW,2013-05-28 01:15:00,
2013-05-27 19:20:00,81.7,43.1,29.80,SW,225,3.8,3.8,26,0.00,,,0.00,WUHU216HW,2013-05-28 01:20:00,
2013-05-27 19:25:00,79.7,43.6,29.80,SSW,203,2.7,4.7,28,0.00,,,0.00,WUHU216HW,2013-05-28 01:25:00,
2013-05-27 19:30:00,79.6,41.3,29.80,NW,315,4.3,4.7,26,0.00,,,0.00,WUHU216HW,2013-05-28 01:30:00,
2013-05-27 19:35:00,76.5,40.9,29.80,NNW,338,3.8,6.3,28,0.00,,,0.00,WUHU216HW,2013-05-28 01:35:00,
2013-05-27 19:40:00,74.2,41.6,29.80,NNE,23,1.6,6.3,31,0.00,,,0.00,WUHU216HW,2013-05-28 01:40:00,
2013-05-27 19:45:00,73.6,42.6,29.80,WNW,293,1.1,1.8,33,0.00,,,0.00,WUHU216HW,2013-05-28 01:45:00,
2013-05-27 19:50:00,73.4,43.2,29.80,West,270,1.6,1.8,34,0.00,,,0.00,WUHU216HW,2013-05-28 01:50:00,
2013-05-27 19:55:00,71.3,43.6,29.80,NW,315,3.4,4.3,37,0.00,,,0.00,WUHU216HW,2013-05-28 01:55:00,
2013-05-27 20:00:00,68.8,43.5,29.80,WNW,293,2.5,4.3,40,0.00,,,0.00,WUHU216HW,2013-05-28 02:00:00,
2013-05-27 20:05:00,67.0,44.3,29.80,WNW,293,2.2,4.0,44,0.00,,,0.00,WUHU216HW,2013-05-28 02:05:00,
2013-05-27 20:10:00,65.3,43.9,29.80,WNW,293,2.7,3.1,46,0.00,,,0.00,WUHU216HW,2013-05-28 02:10:00,
2013-05-27 20:15:00,64.3,44.7,29.80,NW,315,3.4,3.4,49,0.00,,,0.00,WUHU216HW,2013-05-28 02:15:00,
2013-05-27 20:20:00,63.4,45.4,29.80,NNW,338,1.1,3.4,52,0.00,,,0.00,WUHU216HW,2013-05-28 02:20:00,
2013-05-27 20:25:00,61.9,46.0,29.80,North,0,2.0,2.5,56,0.00,,,0.00,WUHU216HW,2013-05-28 02:25:00,
2013-05-27 20:30:00,61.0,45.7,29.80,NNW,338,2.5,2.5,57,0.00,,,0.00,WUHU216HW,2013-05-28 02:30:00,
2013-05-27 20:35:00,60.7,46.8,29.80,NW,315,2.9,2.9,60,0.00,,,0.00,WUHU216HW,2013-05-28 02:35:00,
2013-05-27 20:40:00,60.1,46.3,29.80,NNW,338,0.9,2.9,60,0.00,,,0.00,WUHU216HW,2013-05-28 02:40:00,
2013-05-27 20:45:00,59.8,45.9,29.80,NW,315,2.7,2.7,60,0.00,,,0.00,WUHU216HW,2013-05-28 02:45:00,
2013-05-27 20:50:00,59.4,45.5,29.80,NW,315,3.8,4.0,60,0.00,,,0.00,WUHU216HW,2013-05-28 02:50:00,
2013-05-27 20:55:00,59.0,45.6,29.80,North,0,0.4,4.0,61,0.00,,,0.00,WUHU216HW,2013-05-28 02:55:00,
2013-05-27 21:00:00,58.7,44.8,29.80,North,0,1.3,4.0,60,0.00,,,0.00,WUHU216HW,2013-05-28 03:00:00,
2013-05-27 21:05:00,58.1,44.4,29.80,ENE,68,1.3,2.5,60,0.00,,,0.00,WUHU216HW,2013-05-28 03:05:00,
2013-05-27 21:10:00,57.6,43.9,29.80,ENE,68,1.1,2.5,60,0.00,,,0.00,WUHU216HW,2013-05-28 03:10:00,
2013-05-27 21:15:00,57.1,43.4,29.80,ENE,68,0.7,2.5,60,0.00,,,0.00,WUHU216HW,2013-05-28 03:15:00,
2013-05-27 21:20:00,56.7,43.4,29.80,NNE,23,0.0,1.8,61,0.00,,,0.00,WUHU216HW,2013-05-28 03:20:00,
2013-05-27 21:25:00,56.3,44.3,29.80,NNE,23,1.6,1.6,64,0.00,,,0.00,WUHU216HW,2013-05-28 03:25:00,
2013-05-27 21:30:00,55.6,43.6,29.80,NE,45,2.2,3.1,64,0.00,,,0.00,WUHU216HW,2013-05-28 03:30:00,
2013-05-27 21:35:00,55.1,43.9,29.80,NE,45,2.5,3.4,66,0.00,,,0.00,WUHU216HW,2013-05-28 03:35:00,
2013-05-27 21:40:00,54.7,43.6,29.81,NE,45,2.2,3.4,66,0.00,,,0.00,WUHU216HW,2013-05-28 03:40:00,
2013-05-27 21:45:00,54.4,43.7,29.81,NNE,23,1.8,3.1,67,0.00,,,0.00,WUHU216HW,2013-05-28 03:45:00,
2013-05-27 21:50:00,54.0,43.7,29.81,NE,45,2.5,2.5,68,0.00,,,0.00,WUHU216HW,2013-05-28 03:50:00,
2013-05-27 21:55:00,53.6,43.3,29.82,ENE,68,1.3,2.5,68,0.00,,,0.00,WUHU216HW,2013-05-28 03:55:00,
2013-05-27 22:00:00,53.5,43.6,29.81,NNE,23,2.5,2.9,69,0.00,,,0.00,WUHU216HW,2013-05-28 04:00:00,
2013-05-27 22:01:00,53.5,44.3,29.81,NE,45,2.7,2.9,71,0.00,,,0.00,WUHU216HW,2013-05-28 04:01:00,
2013-05-27 22:06:00,53.3,43.7,29.81,NE,45,2.5,2.9,70,0.00,,,0.00,WUHU216HW,2013-05-28 04:06:00,
2013-05-27 22:11:00,53.3,43.7,29.81,ENE,68,1.8,3.1,70,0.00,,,0.00,WUHU216HW,2013-05-28 04:11:00,
2013-05-27 22:16:00,52.9,43.5,29.82,East,90,4.0,4.0,70,0.00,,,0.00,WUHU216HW,2013-05-28 04:16:00,
2013-05-27 22:21:00,52.9,44.2,29.82,NNE,23,1.1,4.0,72,0.00,,,0.00,WUHU216HW,2013-05-28 04:21:00,
2013-05-27 22:26:00,52.9,43.8,29.81,ENE,68,2.7,2.7,71,0.00,,,0.00,WUHU216HW,2013-05-28 04:26:00,
2013-05-27 22:31:00,52.9,43.8,29.81,ENE,68,2.7,3.4,71,0.00,,,0.00,WUHU216HW,2013-05-28 04:31:00,
2013-05-27 22:36:00,52.6,43.8,29.82,ENE,68,1.1,3.4,72,0.00,,,0.00,WUHU216HW,2013-05-28 04:36:00,
2013-05-27 22:41:00,52.4,43.7,29.82,ENE,68,4.0,4.0,72,0.00,,,0.00,WUHU216HW,2013-05-28 04:41:00,
2013-05-27 22:46:00,52.4,43.7,29.81,NE,45,3.8,4.0,72,0.00,,,0.00,WUHU216HW,2013-05-28 04:46:00,
2013-05-27 22:51:00,52.4,43.7,29.81,ENE,68,2.2,4.5,72,0.00,,,0.00,WUHU216HW,2013-05-28 04:51:00,
2013-05-27 22:56:00,52.2,43.1,29.81,East,90,1.6,4.5,71,0.00,,,0.00,WUHU216HW,2013-05-28 04:56:00,
2013-05-27 23:01:00,52.2,43.5,29.81,ESE,113,1.8,1.8,72,0.00,,,0.00,WUHU216HW,2013-05-28 05:01:00,
2013-05-27 23:06:00,51.8,42.5,29.81,ESE,113,0.7,2.0,70,0.00,,,0.00,WUHU216HW,2013-05-28 05:06:00,
2013-05-27 23:11:00,51.8,42.5,29.81,ENE,68,1.8,2.0,70,0.00,,,0.00,WUHU216HW,2013-05-28 05:11:00,
2013-05-27 23:16:00,51.7,42.7,29.81,ESE,113,3.4,3.4,71,0.00,,,0.00,WUHU216HW,2013-05-28 05:16:00,
2013-05-27 23:21:00,51.7,42.7,29.81,ESE,113,1.8,3.4,71,0.00,,,0.00,WUHU216HW,2013-05-28 05:21:00,
2013-05-27 23:26:00,51.7,42.7,29.81,SE,135,0.9,2.5,71,0.00,,,0.00,WUHU216HW,2013-05-28 05:26:00,
2013-05-27 23:31:00,51.8,43.2,29.81,NNE,23,1.1,2.0,72,0.00,,,0.00,WUHU216HW,2013-05-28 05:31:00,
2013-05-27 23:36:00,51.8,43.2,29.80,NE,45,0.0,1.6,72,0.00,,,0.00,WUHU216HW,2013-05-28 05:36:00,
2013-05-27 23:41:00,51.8,43.2,29.81,SSW,203,3.4,3.8,72,0.00,,,0.00,WUHU216HW,2013-05-28 05:41:00,
2013-05-27 23:46:00,51.8,43.5,29.81,SSW,203,2.2,3.8,73,0.00,,,0.00,WUHU216HW,2013-05-28 05:46:00,
2013-05-27 23:51:00,51.8,43.8,29.81,NE,45,3.1,3.8,74,0.00,,,0.00,WUHU216HW,2013-05-28 05:51:00,
2013-05-27 23:56:00,51.7,44.4,29.80,NE,45,3.1,3.6,76,0.00,,,0.00,WUHU216HW,2013-05-28 05:56:00,